,,Stat6,,Stat2,,Stat8,,Stat9,,Stat10,,Wind1,,Wind1,
time,status,PA1M_AVG,status,PR1M_SUM,status,RH1M_AVG,status,SR1M_AVG,status,TA1M_AVG,status,W1dAve1m,status,W1sAve1m,
2008-10-31, 00:00:00,VALID,918.771,VALID,0,VALID,100,VALID,0,VALID,19.3377,VALID,247,VALID,0.0651042,
2008-10-31, 00:01:00,VALID,918.76,VALID,0,VALID,100,VALID,0.0509425,VALID,19.3602,VALID,225,VALID,0.00277778,
2008-10-31, 00:02:00,VALID,918.786,VALID,0,VALID,100,VALID,0.0849042,VALID,19.318,VALID,234,VALID,0,
2008-10-31, 00:03:00,VALID,918.78,VALID,0,VALID,100,VALID,0.0679233,VALID,19.166,VALID,358,VALID,0,
2008-10-31, 00:04:00,VALID,918.771,VALID,0,VALID,100,VALID,0.0169808,VALID,19.0625,VALID,358,VALID,0,
2008-10-31, 00:05:00,VALID,918.789,VALID,0,VALID,100,VALID,-0.0679233,VALID,19.1123,VALID,358,VALID,0,
2008-10-31, 00:06:00,VALID,918.786,VALID,0,VALID,100,VALID,-0.0169808,VALID,19.138,VALID,358,VALID,0,
2008-10-31, 00:07:00,VALID,918.788,VALID,0,VALID,100,VALID,-0.0339617,VALID,19.0178,VALID,358,VALID,0,
2008-10-31, 00:08:00,VALID,918.793,VALID,0,VALID,100,VALID,-0.0339617,VALID,18.901,VALID,3,VALID,0,
2008-10-31, 00:09:00,VALID,918.791,VALID,0,VALID,100,VALID,0.0169808,VALID,18.9659,VALID,27,VALID,0,
2008-10-31, 00:10:00,VALID,918.784,VALID,0,VALID,100,VALID,0,VALID,18.9237,VALID,27,VALID,0,
2008-10-31, 00:11:00,VALID,918.784,VALID,0,VALID,100,VALID,-0.0339617,VALID,18.8454,VALID,37,VALID,0,
2008-10-31, 00:12:00,VALID,918.788,VALID,0,VALID,100,VALID,-0.0339617,VALID,18.8034,VALID,39,VALID,0,
2008-10-31, 00:13:00,VALID,918.788,VALID,0,VALID,100,VALID,-0.0339617,VALID,18.8526,VALID,39,VALID,0,
2008-10-31, 00:14:00,VALID,918.787,VALID,0,VALID,100,VALID,-0.0849042,VALID,19.0894,VALID,32,VALID,0,
2008-10-31, 00:15:00,VALID,918.77,VALID,0,VALID,100,VALID,-0.0679233,VALID,19.1899,VALID,26,VALID,0,
2008-10-31, 00:16:00,VALID,918.773,VALID,0,VALID,100,VALID,0,VALID,19.284,VALID,26,VALID,0,
2008-10-31, 00:17:00,VALID,918.768,VALID,0,VALID,100,VALID,-0.0509425,VALID,19.3492,VALID,26,VALID,0,
2008-10-31, 00:18:00,VALID,918.768,VALID,0,VALID,100,VALID,-0.0679233,VALID,19.4235,VALID,26,VALID,0,
2008-10-31, 00:19:00,VALID,918.784,VALID,0,VALID,100,VALID,-0.0339617,VALID,19.4268,VALID,26,VALID,0,
2008-10-31, 00:20:00,VALID,918.805,VALID,0,VALID,100,VALID,-0.0339617,VALID,19.4425,VALID,26,VALID,0,
2008-10-31, 00:21:00,VALID,918.823,VALID,0,VALID,100,VALID,0,VALID,19.4719,VALID,26,VALID,0,
2008-10-31, 00:22:00,VALID,918.815,VALID,0,VALID,100,VALID,-0.0169808,VALID,19.4809,VALID,26,VALID,0,
2008-10-31, 00:23:00,VALID,918.79,VALID,0,VALID,100,VALID,0,VALID,19.5106,VALID,26,VALID,0,
2008-10-31, 00:24:00,VALID,918.755,VALID,0,VALID,100,VALID,-0.0679233,VALID,19.5171,VALID,26,VALID,0,
2008-10-31, 00:25:00,VALID,918.743,VALID,0,VALID,100,VALID,0,VALID,19.5166,VALID,26,VALID,0,
2008-10-31, 00:26:00,VALID,918.75,VALID,0,VALID,100,VALID,-0.0169808,VALID,19.5269,VALID,26,VALID,0,
2008-10-31, 00:27:00,VALID,918.733,VALID,0,VALID,100,VALID,0,VALID,19.5209,VALID,26,VALID,0,
2008-10-31, 00:28:00,VALID,918.728,VALID,0,VALID,100,VALID,0,VALID,19.5366,VALID,26,VALID,0,
2008-10-31, 00:29:00,VALID,918.686,VALID,0,VALID,100,VALID,0,VALID,19.5398,VALID,26,VALID,0,
2008-10-31, 00:30:00,VALID,918.65,VALID,0,VALID,100,VALID,0,VALID,19.5952,VALID,26,VALID,0,
2008-10-31, 00:31:00,VALID,918.633,VALID,0,VALID,100,VALID,-0.0169808,VALID,19.6012,VALID,26,VALID,0,
2008-10-31, 00:32:00,VALID,918.613,VALID,0,VALID,100,VALID,0.0339617,VALID,19.611,VALID,26,VALID,0,
2008-10-31, 00:33:00,VALID,918.58,VALID,0,VALID,100,VALID,0,VALID,19.5945,VALID,26,VALID,0,
2008-10-31, 00:34:00,VALID,918.563,VALID,0,VALID,100,VALID,0,VALID,19.6469,VALID,26,VALID,0,
2008-10-31, 00:35:00,VALID,918.531,VALID,0,VALID,100,VALID,-0.0339617,VALID,19.6177,VALID,26,VALID,0,
2008-10-31, 00:36:00,VALID,918.505,VALID,0,VALID,100,VALID,0,VALID,19.5885,VALID,26,VALID,0,
2008-10-31, 00:37:00,VALID,918.498,VALID,0,VALID,100,VALID,0.0169808,VALID,19.5226,VALID,26,VALID,0,
2008-10-31, 00:38:00,VALID,918.489,VALID,0,VALID,100,VALID,0,VALID,19.5625,VALID,26,VALID,0,
2008-10-31, 00:39:00,VALID,918.456,VALID,0,VALID,100,VALID,0,VALID,19.5491,VALID,26,VALID,0,
2008-10-31, 00:40:00,VALID,918.43,VALID,0,VALID,100,VALID,0,VALID,19.5882,VALID,26,VALID,0,
2008-10-31, 00:41:00,VALID,918.441,VALID,0,VALID,100,VALID,-0.0169808,VALID,19.6237,VALID,36,VALID,0,
2008-10-31, 00:42:00,VALID,918.449,VALID,0,VALID,100,VALID,0,VALID,19.5753,VALID,33,VALID,0,
2008-10-31, 00:43:00,VALID,918.446,VALID,0,VALID,100,VALID,0,VALID,19.5715,VALID,33,VALID,0,
2008-10-31, 00:44:00,VALID,918.418,VALID,0,VALID,100,VALID,0.0169808,VALID,19.5553,VALID,37,VALID,0,
2008-10-31, 00:45:00,VALID,918.379,VALID,0,VALID,100,VALID,0,VALID,19.5655,VALID,37,VALID,0,
2008-10-31, 00:46:00,VALID,918.344,VALID,0,VALID,100,VALID,0,VALID,19.5813,VALID,37,VALID,0,
2008-10-31, 00:47:00,VALID,918.333,VALID,0,VALID,100,VALID,0,VALID,19.5945,VALID,37,VALID,0,
2008-10-31, 00:48:00,VALID,918.335,VALID,0,VALID,100,VALID,0,VALID,19.6072,VALID,37,VALID,0,
2008-10-31, 00:49:00,VALID,918.345,VALID,0,VALID,100,VALID,0.0169808,VALID,19.6105,VALID,37,VALID,0,
2008-10-31, 00:50:00,VALID,918.324,VALID,0,VALID,100,VALID,0,VALID,19.6047,VALID,13,VALID,0,
2008-10-31, 00:51:00,VALID,918.299,VALID,0,VALID,100,VALID,0,VALID,19.5985,VALID,12,VALID,0,
2008-10-31, 00:52:00,VALID,918.271,VALID,0,VALID,100,VALID,0,VALID,19.582,VALID,12,VALID,0,
2008-10-31, 00:53:00,VALID,918.266,VALID,0,VALID,100,VALID,0.0339617,VALID,19.5331,VALID,13,VALID,0,
2008-10-31, 00:54:00,VALID,918.259,VALID,0,VALID,100,VALID,0,VALID,19.4874,VALID,20,VALID,0,
2008-10-31, 00:55:00,VALID,918.237,VALID,0,VALID,100,VALID,0,VALID,19.4742,VALID,9,VALID,0.0126065,
2008-10-31, 00:56:00,VALID,918.215,VALID,0,VALID,100,VALID,0.0169808,VALID,19.4904,VALID,25,VALID,0.164063,
2008-10-31, 00:57:00,VALID,918.194,VALID,0,VALID,100,VALID,-0.0169808,VALID,19.4615,VALID,27,VALID,0,
2008-10-31, 00:58:00,VALID,918.189,VALID,0,VALID,100,VALID,0,VALID,19.468,VALID,9,VALID,0.0348011,
2008-10-31, 00:59:00,VALID,918.18,VALID,0,VALID,100,VALID,-0.0169808,VALID,19.448,VALID,6,VALID,0.00106534,
2008-10-31, 01:00:00,VALID,918.144,VALID,0,VALID,100,VALID,-0.0169808,VALID,19.4782,VALID,17,VALID,0,
2008-10-31, 01:01:00,VALID,918.108,VALID,0,VALID,100,VALID,0,VALID,19.4483,VALID,356,VALID,0,
2008-10-31, 01:02:00,VALID,918.071,VALID,0,VALID,100,VALID,0,VALID,19.4295,VALID,352,VALID,0.0961682,
2008-10-31, 01:03:00,VALID,918.065,VALID,0,VALID,100,VALID,0,VALID,19.3607,VALID,9,VALID,1.05655,
2008-10-31, 01:04:00,VALID,918.056,VALID,0,VALID,100,VALID,-0.0169808,VALID,19.4455,VALID,15,VALID,0.977121,
2008-10-31, 01:05:00,VALID,918.054,VALID,0,VALID,100,VALID,-0.0849042,VALID,19.4862,VALID,17,VALID,0.0200893,
2008-10-31, 01:06:00,VALID,918.057,VALID,0,VALID,100,VALID,-0.101885,VALID,19.4954,VALID,20,VALID,0.170967,
2008-10-31, 01:07:00,VALID,918.027,VALID,0,VALID,100,VALID,-0.118866,VALID,19.5313,VALID,19,VALID,1.15415,
2008-10-31, 01:08:00,VALID,918.004,VALID,0,VALID,100,VALID,-0.101885,VALID,19.574,VALID,16,VALID,1.36266,
2008-10-31, 01:09:00,VALID,917.988,VALID,0,VALID,100,VALID,-0.118866,VALID,19.5763,VALID,21,VALID,1.50267,
2008-10-31, 01:10:00,VALID,917.978,VALID,0,VALID,100,VALID,-0.0849042,VALID,19.5793,VALID,14,VALID,1.24092,
2008-10-31, 01:11:00,VALID,917.962,VALID,0,VALID,100,VALID,-0.118866,VALID,19.5798,VALID,5,VALID,0.795351,
2008-10-31, 01:12:00,VALID,917.942,VALID,0,VALID,100,VALID,-0.118866,VALID,19.5962,VALID,10,VALID,0.322115,
2008-10-31, 01:13:00,VALID,917.938,VALID,0,VALID,100,VALID,-0.101885,VALID,19.5832,VALID,9,VALID,0.362805,
2008-10-31, 01:14:00,VALID,917.94,VALID,0,VALID,100,VALID,-0.101885,VALID,19.6062,VALID,2,VALID,0.340216,
2008-10-31, 01:15:00,VALID,917.948,VALID,0,VALID,100,VALID,-0.101885,VALID,19.6189,VALID,352,VALID,0.857701,
2008-10-31, 01:16:00,VALID,917.925,VALID,0,VALID,100,VALID,-0.101885,VALID,19.6584,VALID,16,VALID,1.20926,
2008-10-31, 01:17:00,VALID,917.897,VALID,0,VALID,100,VALID,-0.118866,VALID,19.6911,VALID,10,VALID,0.733041,
2008-10-31, 01:18:00,VALID,917.866,VALID,0,VALID,100,VALID,-0.118866,VALID,19.6771,VALID,37,VALID,0.245998,
2008-10-31, 01:19:00,VALID,917.847,VALID,0,VALID,100,VALID,-0.0679233,VALID,19.6666,VALID,28,VALID,0.00223214,
2008-10-31, 01:20:00,VALID,917.822,VALID,0,VALID,100,VALID,0,VALID,19.6733,VALID,26,VALID,0,
2008-10-31, 01:21:00,VALID,917.81,VALID,0,VALID,100,VALID,-0.0339617,VALID,19.6761,VALID,26,VALID,0,
2008-10-31, 01:22:00,VALID,917.828,VALID,0,VALID,100,VALID,-0.0169808,VALID,19.6629,VALID,28,VALID,0.258575,
2008-10-31, 01:23:00,VALID,917.807,VALID,0,VALID,100,VALID,-0.0169808,VALID,19.6733,VALID,33,VALID,0.0123547,
2008-10-31, 01:24:00,VALID,917.806,VALID,0,VALID,100,VALID,-0.0339617,VALID,19.6307,VALID,46,VALID,0.103423,
2008-10-31, 01:25:00,VALID,917.763,VALID,0,VALID,100,VALID,-0.0169808,VALID,19.6214,VALID,56,VALID,0,
2008-10-31, 01:26:00,VALID,917.714,VALID,0,VALID,100,VALID,-0.0849042,VALID,19.6184,VALID,61,VALID,0,
2008-10-31, 01:27:00,VALID,917.691,VALID,0,VALID,100,VALID,-0.0169808,VALID,19.6182,VALID,48,VALID,0,
2008-10-31, 01:28:00,VALID,917.687,VALID,0,VALID,100,VALID,-0.0169808,VALID,19.6017,VALID,42,VALID,0,
2008-10-31, 01:29:00,VALID,917.663,VALID,0,VALID,100,VALID,-0.0509425,VALID,19.5853,VALID,32,VALID,0,
2008-10-31, 01:30:00,VALID,917.659,VALID,0,VALID,100,VALID,-0.0339617,VALID,19.6174,VALID,25,VALID,0,
2008-10-31, 01:31:00,VALID,917.662,VALID,0,VALID,100,VALID,-0.0679233,VALID,19.6082,VALID,21,VALID,0,
2008-10-31, 01:32:00,VALID,917.657,VALID,0,VALID,100,VALID,-0.0339617,VALID,19.6307,VALID,14,VALID,0,
2008-10-31, 01:33:00,VALID,917.642,VALID,0,VALID,100,VALID,-0.0169808,VALID,19.6761,VALID,19,VALID,0,
2008-10-31, 01:34:00,VALID,917.625,VALID,0,VALID,100,VALID,-0.0339617,VALID,19.6986,VALID,34,VALID,0,
2008-10-31, 01:35:00,VALID,917.613,VALID,0,VALID,99.9977,VALID,-0.118866,VALID,19.7195,VALID,34,VALID,0,
2008-10-31, 01:36:00,VALID,917.62,VALID,0,VALID,99.9529,VALID,-0.135847,VALID,19.6876,VALID,34,VALID,0.0408794,
2008-10-31, 01:37:00,VALID,917.581,VALID,0,VALID,99.9237,VALID,-0.135847,VALID,19.6679,VALID,29,VALID,0.0947516,
2008-10-31, 01:38:00,VALID,917.535,VALID,0,VALID,99.9532,VALID,-0.118866,VALID,19.6451,VALID,29,VALID,0,
2008-10-31, 01:39:00,VALID,917.519,VALID,0,VALID,99.9512,VALID,-0.101885,VALID,19.6322,VALID,29,VALID,0,
2008-10-31, 01:40:00,VALID,917.504,VALID,0,VALID,99.7828,VALID,-0.135847,VALID,19.6032,VALID,29,VALID,0,
2008-10-31, 01:41:00,VALID,917.506,VALID,0,VALID,99.6328,VALID,-0.152827,VALID,19.5673,VALID,31,VALID,0.149368,
2008-10-31, 01:42:00,VALID,917.499,VALID,0,VALID,99.6035,VALID,-0.118866,VALID,19.5121,VALID,38,VALID,0.060404,
2008-10-31, 01:43:00,VALID,917.522,VALID,0,VALID,99.8054,VALID,-0.0849042,VALID,19.4697,VALID,37,VALID,0,
2008-10-31, 01:44:00,VALID,917.515,VALID,0,VALID,99.8828,VALID,-0.118866,VALID,19.4377,VALID,36,VALID,0,
2008-10-31, 01:45:00,VALID,917.531,VALID,0,VALID,100,VALID,-0.101885,VALID,19.4305,VALID,36,VALID,0,
2008-10-31, 01:46:00,VALID,917.528,VALID,0,VALID,100,VALID,-0.101885,VALID,19.4632,VALID,35,VALID,0,
2008-10-31, 01:47:00,VALID,917.531,VALID,0,VALID,100,VALID,-0.118866,VALID,19.4792,VALID,33,VALID,0,
2008-10-31, 01:48:00,VALID,917.522,VALID,0,VALID,100,VALID,-0.101885,VALID,19.4792,VALID,32,VALID,0.0876524,
2008-10-31, 01:49:00,VALID,917.51,VALID,0,VALID,99.8306,VALID,-0.0849042,VALID,19.4567,VALID,30,VALID,0.122142,
2008-10-31, 01:50:00,VALID,917.515,VALID,0,VALID,99.9926,VALID,-0.0339617,VALID,19.4495,VALID,37,VALID,0.0527344,
2008-10-31, 01:51:00,VALID,917.497,VALID,0,VALID,100,VALID,-0.0509425,VALID,19.4944,VALID,36,VALID,0,
2008-10-31, 01:52:00,VALID,917.491,VALID,0,VALID,99.939,VALID,-0.0509425,VALID,19.5401,VALID,40,VALID,0,
2008-10-31, 01:53:00,VALID,917.508,VALID,0,VALID,99.7943,VALID,-0.0509425,VALID,19.579,VALID,41,VALID,0,
2008-10-31, 01:54:00,VALID,917.528,VALID,0,VALID,99.0745,VALID,-0.0339617,VALID,19.5366,VALID,40,VALID,0,
2008-10-31, 01:55:00,VALID,917.539,VALID,0,VALID,99.3594,VALID,-0.0509425,VALID,19.5009,VALID,39,VALID,0,
2008-10-31, 01:56:00,VALID,917.543,VALID,0,VALID,99.531,VALID,-0.0339617,VALID,19.5174,VALID,39,VALID,0,
2008-10-31, 01:57:00,VALID,917.556,VALID,0,VALID,99.4293,VALID,-0.0509425,VALID,19.5139,VALID,39,VALID,0,
2008-10-31, 01:58:00,VALID,917.55,VALID,0,VALID,99.2843,VALID,-0.0169808,VALID,19.4812,VALID,39,VALID,0,
2008-10-31, 01:59:00,VALID,917.531,VALID,0,VALID,99.044,VALID,0,VALID,19.423,VALID,40,VALID,0,
2008-10-31, 02:00:00,VALID,917.531,VALID,0,VALID,98.9753,VALID,-0.0509425,VALID,19.3586,VALID,40,VALID,0,
2008-10-31, 02:01:00,VALID,917.522,VALID,0,VALID,99.1368,VALID,-0.0679233,VALID,19.313,VALID,40,VALID,0,
2008-10-31, 02:02:00,VALID,917.51,VALID,0,VALID,99.0923,VALID,0,VALID,19.2608,VALID,40,VALID,0,
2008-10-31, 02:03:00,VALID,917.494,VALID,0,VALID,98.9792,VALID,-0.0339617,VALID,19.1603,VALID,40,VALID,0,
2008-10-31, 02:04:00,VALID,917.467,VALID,0,VALID,99.7978,VALID,-0.0679233,VALID,19.17,VALID,40,VALID,0,
2008-10-31, 02:05:00,VALID,917.46,VALID,0,VALID,99.9738,VALID,-0.0169808,VALID,19.186,VALID,40,VALID,0.0390625,
2008-10-31, 02:06:00,VALID,917.47,VALID,0,VALID,99.7281,VALID,-0.0509425,VALID,19.1535,VALID,40,VALID,0,
2008-10-31, 02:07:00,VALID,917.465,VALID,0,VALID,99.4064,VALID,-0.0509425,VALID,19.0732,VALID,40,VALID,0,
2008-10-31, 02:08:00,VALID,917.468,VALID,0,VALID,99.3734,VALID,-0.0679233,VALID,19.0145,VALID,40,VALID,0,
2008-10-31, 02:09:00,VALID,917.469,VALID,0,VALID,98.8329,VALID,0,VALID,18.897,VALID,40,VALID,0,
2008-10-31, 02:10:00,VALID,917.469,VALID,0,VALID,99.0669,VALID,0,VALID,18.7965,VALID,68,VALID,0.0430596,
2008-10-31, 02:11:00,VALID,917.49,VALID,0,VALID,99.147,VALID,-0.0169808,VALID,18.7027,VALID,68,VALID,0,
2008-10-31, 02:12:00,VALID,917.509,VALID,0,VALID,99.3263,VALID,-0.0339617,VALID,18.6021,VALID,69,VALID,0.00106534,
2008-10-31, 02:13:00,VALID,917.521,VALID,0,VALID,99.9888,VALID,-0.0169808,VALID,18.657,VALID,73,VALID,0,
2008-10-31, 02:14:00,VALID,917.517,VALID,0,VALID,100,VALID,-0.0169808,VALID,18.777,VALID,104,VALID,0,
2008-10-31, 02:15:00,VALID,917.529,VALID,0,VALID,100,VALID,-0.0339617,VALID,18.7675,VALID,109,VALID,0,
2008-10-31, 02:16:00,VALID,917.519,VALID,0,VALID,100,VALID,0,VALID,18.7613,VALID,109,VALID,0,
2008-10-31, 02:17:00,VALID,917.508,VALID,0,VALID,100,VALID,-0.0509425,VALID,18.7326,VALID,110,VALID,0,
2008-10-31, 02:18:00,VALID,917.491,VALID,0,VALID,100,VALID,-0.0679233,VALID,18.7291,VALID,125,VALID,0,
2008-10-31, 02:19:00,VALID,917.493,VALID,0,VALID,100,VALID,-0.0169808,VALID,18.6839,VALID,140,VALID,0,
2008-10-31, 02:20:00,VALID,917.484,VALID,0,VALID,100,VALID,-0.0509425,VALID,18.6318,VALID,138,VALID,0,
2008-10-31, 02:21:00,VALID,917.477,VALID,0,VALID,100,VALID,-0.0169808,VALID,18.5924,VALID,137,VALID,0.0012429,
2008-10-31, 02:22:00,VALID,917.466,VALID,0,VALID,100,VALID,-0.0679233,VALID,18.5697,VALID,140,VALID,0.000177557,
2008-10-31, 02:23:00,VALID,917.464,VALID,0,VALID,100,VALID,-0.0169808,VALID,18.5562,VALID,140,VALID,0.0385045,
2008-10-31, 02:24:00,VALID,917.443,VALID,0,VALID,100,VALID,-0.0169808,VALID,18.5308,VALID,140,VALID,0,
2008-10-31, 02:25:00,VALID,917.409,VALID,0,VALID,100,VALID,-0.0169808,VALID,18.5634,VALID,140,VALID,0.0906613,
2008-10-31, 02:26:00,VALID,917.4,VALID,0,VALID,100,VALID,-0.0169808,VALID,18.6281,VALID,132,VALID,0,
2008-10-31, 02:27:00,VALID,917.359,VALID,0,VALID,100,VALID,0,VALID,18.5982,VALID,117,VALID,0,
2008-10-31, 02:28:00,VALID,917.333,VALID,0,VALID,100,VALID,0,VALID,18.5657,VALID,117,VALID,0,
2008-10-31, 02:29:00,VALID,917.295,VALID,0,VALID,100,VALID,0,VALID,18.6049,VALID,117,VALID,0.0669922,
2008-10-31, 02:30:00,VALID,917.285,VALID,0,VALID,100,VALID,0.0169808,VALID,18.6274,VALID,117,VALID,0,
2008-10-31, 02:31:00,VALID,917.263,VALID,0,VALID,100,VALID,0.0169808,VALID,18.6306,VALID,117,VALID,0,
2008-10-31, 02:32:00,VALID,917.246,VALID,0,VALID,100,VALID,-0.0169808,VALID,18.6049,VALID,81,VALID,0,
2008-10-31, 02:33:00,VALID,917.242,VALID,0,VALID,100,VALID,-0.0169808,VALID,18.524,VALID,52,VALID,0,
2008-10-31, 02:34:00,VALID,917.224,VALID,0,VALID,100,VALID,-0.0339617,VALID,18.7221,VALID,88,VALID,0.062314,
2008-10-31, 02:35:00,VALID,917.206,VALID,0,VALID,100,VALID,0,VALID,18.9133,VALID,89,VALID,0.0207031,
2008-10-31, 02:36:00,VALID,917.213,VALID,0,VALID,100,VALID,-0.0509425,VALID,19.0527,VALID,90,VALID,0.0759766,
2008-10-31, 02:37:00,VALID,917.224,VALID,0,VALID,100,VALID,-0.0169808,VALID,19.0652,VALID,90,VALID,0,
2008-10-31, 02:38:00,VALID,917.242,VALID,0,VALID,100,VALID,0.0169808,VALID,19.0655,VALID,90,VALID,0,
2008-10-31, 02:39:00,VALID,917.245,VALID,0,VALID,100,VALID,-0.0169808,VALID,19.0525,VALID,90,VALID,0,
2008-10-31, 02:40:00,VALID,917.261,VALID,0,VALID,100,VALID,-0.0339617,VALID,18.9941,VALID,90,VALID,0,
2008-10-31, 02:41:00,VALID,917.256,VALID,0,VALID,100,VALID,0,VALID,18.9387,VALID,101,VALID,0,
2008-10-31, 02:42:00,VALID,917.24,VALID,0,VALID,100,VALID,0,VALID,18.8706,VALID,108,VALID,0,
2008-10-31, 02:43:00,VALID,917.255,VALID,0,VALID,100,VALID,-0.0169808,VALID,18.8027,VALID,108,VALID,0.405007,
2008-10-31, 02:44:00,VALID,917.272,VALID,0,VALID,100,VALID,0,VALID,18.8349,VALID,108,VALID,0,
2008-10-31, 02:45:00,VALID,917.268,VALID,0,VALID,100,VALID,-0.0169808,VALID,18.8352,VALID,108,VALID,0,
2008-10-31, 02:46:00,VALID,917.277,VALID,0,VALID,100,VALID,-0.0169808,VALID,18.8159,VALID,118,VALID,0,
2008-10-31, 02:47:00,VALID,917.273,VALID,0,VALID,100,VALID,0,VALID,18.783,VALID,124,VALID,0,
2008-10-31, 02:48:00,VALID,917.266,VALID,0,VALID,100,VALID,0,VALID,18.7244,VALID,131,VALID,0,
2008-10-31, 02:49:00,VALID,917.265,VALID,0,VALID,100,VALID,0,VALID,18.7087,VALID,133,VALID,0,
2008-10-31, 02:50:00,VALID,917.273,VALID,0,VALID,100,VALID,0,VALID,18.6728,VALID,135,VALID,0.0388672,
2008-10-31, 02:51:00,VALID,917.285,VALID,0,VALID,100,VALID,-0.0169808,VALID,18.644,VALID,135,VALID,0.46609,
2008-10-31, 02:52:00,VALID,917.297,VALID,0,VALID,100,VALID,0,VALID,18.6183,VALID,135,VALID,0,
2008-10-31, 02:53:00,VALID,917.297,VALID,0,VALID,100,VALID,0,VALID,18.6079,VALID,135,VALID,0,
2008-10-31, 02:54:00,VALID,917.28,VALID,0,VALID,100,VALID,0,VALID,18.5917,VALID,135,VALID,0.382999,
2008-10-31, 02:55:00,VALID,917.278,VALID,0,VALID,100,VALID,-0.0169808,VALID,18.5755,VALID,135,VALID,0.764844,
2008-10-31, 02:56:00,VALID,917.252,VALID,0,VALID,100,VALID,-0.0339617,VALID,18.5465,VALID,135,VALID,0.0111607,
2008-10-31, 02:57:00,VALID,917.224,VALID,0,VALID,100,VALID,0,VALID,18.5368,VALID,136,VALID,0,
2008-10-31, 02:58:00,VALID,917.212,VALID,0,VALID,100,VALID,-0.0169808,VALID,18.5301,VALID,136,VALID,0,
2008-10-31, 02:59:00,VALID,917.201,VALID,0,VALID,100,VALID,-0.0169808,VALID,18.5403,VALID,136,VALID,0,
2008-10-31, 03:00:00,VALID,917.19,VALID,0,VALID,100,VALID,0,VALID,18.5398,VALID,136,VALID,0,
2008-10-31, 03:01:00,VALID,917.178,VALID,0,VALID,100,VALID,-0.0339617,VALID,18.5308,VALID,136,VALID,0,
2008-10-31, 03:02:00,VALID,917.171,VALID,0,VALID,100,VALID,0.0169808,VALID,18.5338,VALID,136,VALID,0,
2008-10-31, 03:03:00,VALID,917.174,VALID,0,VALID,100,VALID,-0.0169808,VALID,18.5238,VALID,136,VALID,0,
2008-10-31, 03:04:00,VALID,917.175,VALID,0,VALID,100,VALID,-0.0169808,VALID,18.5141,VALID,136,VALID,0,
2008-10-31, 03:05:00,VALID,917.173,VALID,0,VALID,100,VALID,0,VALID,18.4782,VALID,136,VALID,0,
2008-10-31, 03:06:00,VALID,917.143,VALID,0,VALID,100,VALID,-0.0169808,VALID,18.4849,VALID,136,VALID,0,
2008-10-31, 03:07:00,VALID,917.131,VALID,0,VALID,100,VALID,0,VALID,18.4814,VALID,136,VALID,0.0863281,
2008-10-31, 03:08:00,VALID,917.116,VALID,0,VALID,100,VALID,0.0339617,VALID,18.465,VALID,136,VALID,0.614281,
2008-10-31, 03:09:00,VALID,917.122,VALID,0,VALID,100,VALID,0,VALID,18.4587,VALID,136,VALID,0.637005,
2008-10-31, 03:10:00,VALID,917.124,VALID,0,VALID,100,VALID,0,VALID,18.4392,VALID,136,VALID,0.548328,
2008-10-31, 03:11:00,VALID,917.119,VALID,0,VALID,100,VALID,0,VALID,18.4395,VALID,136,VALID,0.665587,
2008-10-31, 03:12:00,VALID,917.121,VALID,0,VALID,100,VALID,0,VALID,18.4332,VALID,136,VALID,0.728609,
2008-10-31, 03:13:00,VALID,917.112,VALID,0,VALID,100,VALID,0.0169808,VALID,18.433,VALID,136,VALID,0.494093,
2008-10-31, 03:14:00,VALID,917.098,VALID,0,VALID,100,VALID,0.0169808,VALID,18.43,VALID,136,VALID,0,
2008-10-31, 03:15:00,VALID,917.08,VALID,0,VALID,100,VALID,-0.0169808,VALID,18.4198,VALID,136,VALID,0,
2008-10-31, 03:16:00,VALID,917.06,VALID,0,VALID,100,VALID,0.0169808,VALID,18.4587,VALID,136,VALID,0,
2008-10-31, 03:17:00,VALID,917.043,VALID,0,VALID,100,VALID,0.0509425,VALID,18.4847,VALID,137,VALID,0,
2008-10-31, 03:18:00,VALID,917.038,VALID,0,VALID,100,VALID,0.0509425,VALID,18.5041,VALID,146,VALID,0,
2008-10-31, 03:19:00,VALID,917.037,VALID,0,VALID,100,VALID,-0.0339617,VALID,18.4948,VALID,146,VALID,0,
2008-10-31, 03:20:00,VALID,917.039,VALID,0,VALID,100,VALID,-0.101885,VALID,18.4571,VALID,148,VALID,0,
2008-10-31, 03:21:00,VALID,917.02,VALID,0,VALID,100,VALID,-0.0849042,VALID,18.4761,VALID,160,VALID,0.0985863,
2008-10-31, 03:22:00,VALID,917.014,VALID,0,VALID,100,VALID,-0.101885,VALID,18.5217,VALID,164,VALID,1.23867,
2008-10-31, 03:23:00,VALID,917,VALID,0,VALID,100,VALID,-0.0849042,VALID,18.5509,VALID,158,VALID,0.315476,
2008-10-31, 03:24:00,VALID,916.989,VALID,0,VALID,100,VALID,-0.0849042,VALID,18.5609,VALID,157,VALID,0,
2008-10-31, 03:25:00,VALID,916.996,VALID,0,VALID,100,VALID,-0.0509425,VALID,18.5739,VALID,155,VALID,0,
2008-10-31, 03:26:00,VALID,916.994,VALID,0,VALID,100,VALID,-0.101885,VALID,18.5607,VALID,154,VALID,0,
2008-10-31, 03:27:00,VALID,916.969,VALID,0,VALID,100,VALID,-0.0509425,VALID,18.5604,VALID,155,VALID,0,
2008-10-31, 03:28:00,VALID,916.964,VALID,0,VALID,100,VALID,-0.0509425,VALID,18.5377,VALID,154,VALID,0,
2008-10-31, 03:29:00,VALID,916.952,VALID,0,VALID,100,VALID,-0.0509425,VALID,18.525,VALID,150,VALID,0,
2008-10-31, 03:30:00,VALID,916.95,VALID,0,VALID,100,VALID,-0.101885,VALID,18.5055,VALID,149,VALID,0,
2008-10-31, 03:31:00,VALID,916.969,VALID,0,VALID,100,VALID,-0.0849042,VALID,18.4988,VALID,147,VALID,0,
2008-10-31, 03:32:00,VALID,917.009,VALID,0,VALID,100,VALID,-0.0339617,VALID,18.512,VALID,143,VALID,0.0959821,
2008-10-31, 03:33:00,VALID,917.014,VALID,0,VALID,100,VALID,-0.101885,VALID,18.5187,VALID,140,VALID,0.78782,
2008-10-31, 03:34:00,VALID,917.02,VALID,0,VALID,100,VALID,-0.0679233,VALID,18.5347,VALID,136,VALID,0.85556,
2008-10-31, 03:35:00,VALID,917.02,VALID,0,VALID,100,VALID,-0.101885,VALID,18.5347,VALID,133,VALID,1.163,
2008-10-31, 03:36:00,VALID,917.013,VALID,0,VALID,100,VALID,-0.101885,VALID,18.5347,VALID,139,VALID,1.16988,
2008-10-31, 03:37:00,VALID,917.007,VALID,0,VALID,100,VALID,-0.0849042,VALID,18.5509,VALID,139,VALID,1.20756,
2008-10-31, 03:38:00,VALID,917.006,VALID,0,VALID,100,VALID,-0.0849042,VALID,18.5604,VALID,139,VALID,1.17914,
2008-10-31, 03:39:00,VALID,917.008,VALID,0,VALID,100,VALID,-0.0679233,VALID,18.541,VALID,140,VALID,1.25874,
2008-10-31, 03:40:00,VALID,917.015,VALID,0,VALID,100,VALID,-0.101885,VALID,18.5315,VALID,139,VALID,1.09832,
2008-10-31, 03:41:00,VALID,917.016,VALID,0,VALID,100,VALID,-0.101885,VALID,18.5217,VALID,139,VALID,0.119186,
2008-10-31, 03:42:00,VALID,917.027,VALID,0,VALID,100,VALID,-0.101885,VALID,18.525,VALID,134,VALID,0.198117,
2008-10-31, 03:43:00,VALID,917.03,VALID,0,VALID,100,VALID,-0.101885,VALID,18.4893,VALID,132,VALID,0.207667,
2008-10-31, 03:44:00,VALID,917.044,VALID,0,VALID,100,VALID,-0.101885,VALID,18.4666,VALID,131,VALID,0,
2008-10-31, 03:45:00,VALID,917.055,VALID,0,VALID,100,VALID,-0.101885,VALID,18.4244,VALID,132,VALID,0,
2008-10-31, 03:46:00,VALID,917.06,VALID,0,VALID,100,VALID,-0.0849042,VALID,18.4119,VALID,134,VALID,0,
2008-10-31, 03:47:00,VALID,917.05,VALID,0,VALID,100,VALID,-0.118866,VALID,18.3888,VALID,137,VALID,0.542696,
2008-10-31, 03:48:00,VALID,917.036,VALID,0,VALID,100,VALID,-0.0849042,VALID,18.3918,VALID,148,VALID,1.34539,
2008-10-31, 03:49:00,VALID,917.027,VALID,0,VALID,100,VALID,-0.118866,VALID,18.3888,VALID,143,VALID,1.24293,